www.pogodaiklimat.ru

ПОГОДА в Дедхорсе, AK

  • Прогноз погоды в Дедхорсе
  • Монитор погоды в Дедхорсе
  • Климат в Дедхорсе

АРХИВ ПОГОДЫ в Дедхорсе

Время (UTC), дата Ветер
(напр.,м/с)
 
Видим.   Явления Облачность Т
(С)
Тd
(С)
f
(%)
Тe
(С)
Тes
(С)
Комфортность

P
(гПа)

Po
(гПа)
Тmin
(С)
Tmax
(С)
R
(мм)
SD
(см)
16:53 14.06 СВ  16 км    8/2 180 м
[средняя верхняя] 
+1.7  -1.1  82  -5  -4    1011.4  1009.4  -1.1  +1.7     
17:53 14.06 СВ  16 км    8/2 180 м
[средняя верхняя] 
+3.9  -1.1  70  -2  -1    1012.0  1009.7         
18:53 14.06 СВ  16 км    8/2 180 м
[средняя верхняя] 
+3.9  -0.6  72  -2  -1    1012.7  1010.4         
19:53 14.06 СВ  16 км    5/2 180 м
[средняя верхняя] 
+3.3  -0.6  76  -3  -2    1013.6  1011.4         
20:53 14.06 С  16 км    8/2 270 м
[средняя верхняя] 
+3.3  -0.6  76  -3  -1    1014.2  1012.1         
21:53 14.06 С  16 км    2/2 270 м  +2.2  -1.1  79  -4  -2    1015.1  1012.7         
22:53 14.06 С  16 км    2/2 270 м  +2.2  -1.1  79  -4  -2    1015.6  1013.4  +1.7  +4.4     
23:53 14.06 С  16 км    2/2 180 м
[средняя] 
+2.2  -1.7  75  -4  -3    1016.4  1014.1         
00:53 15.06 С  16 км    2/2 180 м  +2.2  -1.1  79  -4  -3    1017.1  1014.8         
01:53 15.06 С  16 км    ясно  +2.8  -1.7  72  -3  -1    1017.3  1015.1         
02:53 15.06 С  16 км    5/0 6000 м
[средняя] 
+3.3  -3.9  59  -2  -1    1017.6  1015.4         
03:53 15.06 СВ  16 км    5/0 6300 м
[верхняя] 
+2.8  -2.2  70  -3  -2    1017.8  1015.4         
04:53 15.06 С  16 км    5/0 6300 м
[верхняя] 
+2.2  -1.7  75  -3  -2    1018.2  1016.1  +1.7  +3.3     
05:53 15.06 СВ  16 км    ясно  +1.7  -1.7  78  -3  -3    1018.5  1016.1         
06:53 15.06 С  16 км    ясно  +1.1  -1.7  82  -4  -4    1018.9  1016.8         
07:53 15.06 С  16 км    ясно  +1.1  -1.7  82  -4  -4    1019.3  1017.1         
08:53 15.06 С  16 км    5/0 6300 м
[верхняя] 
+0.6  -2.2  81  -3  -3    1019.2  1017.1         
09:53 15.06 С  16 км    2/0 6300 м
[верхняя] 
0.0  -1.7  88  -5  -5    1019.7  1017.5         
10:53 15.06   16 км    ясно  0.0  -1.7  88  -1  -1    1019.8  1017.5  0.0  +2.2     
11:53 15.06   16 км    5/2 150 м
[верхняя] 
0.0  -1.7  88  -1  -1    1019.9  1017.8         
12:53 15.06   16 км    5/5 180 м
[верхняя] 
+1.1  -1.1  85  0  0    1020.0  1017.8         
13:53 15.06   16 км    8/2 180 м
[верхняя] 
+1.7  -1.7  78  +1  +2    1020.1  1017.8         
14:53 15.06 нст  16 км    5/2 180 м
[верхняя] 
+2.2  -1.1  79  -0  +1    1020.2  1017.8         
15:53 15.06 СЗ  16 км    2/0 6900 м
[верхняя] 
+3.3  -1.1  73  +1  +5    1020.4  1018.1         
16:53 15.06 нст  16 км    2/0 6900 м
[верхняя] 
+5.0  -1.7  62  +3  +8    1020.6  1018.5  0.0  +5.0     
17:53 15.06 СЗ  16 км    ясно  +5.6  -1.1  62  +3  +8    1020.4  1018.1         
18:53 15.06 СВ  16 км    ясно  +6.7  0.0  62  +4  +12    1020.5  1018.1         
19:53 15.06 В  16 км    ясно  +7.2  0.0  60  +6  +16  опасность
простуды 
1020.0  1017.8         
20:53 15.06 С  16 км    ясно  +7.2  -0.6  58  +6  +17  опасность
простуды 
1019.7  1017.5         
21:53 15.06 С  16 км    2/0 6300 м
[верхняя] 
+7.8  -0.6  55  +5  +11    1019.4  1017.1         
22:53 15.06 С  16 км    2/0 6300 м
[верхняя] 
+7.2  -2.2  51  +3  +6    1019.3  1017.1  +4.4  +8.3     
23:53 15.06 СВ  16 км    2/0 6300 м
[верхняя] 
+6.7  0.0  62  +3  +7    1019.0  1016.8         
00:53 16.06 СВ  16 км    5/0 6300 м
[верхняя] 
+6.7  -1.7  55  +3  +7    1018.7  1016.5         
01:53 16.06 В  16 км    5/0 6300 м
[верхняя] 
+6.7  -1.1  57  +4  +8    1018.5  1016.1         
02:53 16.06 В  16 км    5/0 6300 м
[верхняя] 
+6.7  -1.1  57  +4  +7    1018.0  1015.8         
03:53 16.06 В  16 км    ясно  +6.7  -1.7  55  +4  +7    1017.6  1015.4         
04:53 16.06 В  16 км    5/0 6300 м
[верхняя] 
+7.2  -1.7  53  +5  +7    1017.4  1015.1  +6.1  +7.2     
05:53 16.06   16 км    5/0 6300 м
[верхняя] 
+7.2  -1.7  53  +7  +8    1017.1  1014.8         
06:53 16.06   16 км    2/0 6300 м
[верхняя] 
+6.1  -0.6  62  +6  +6    1017.1  1014.8         
07:53 16.06 В  16 км    2/0 6300 м
[верхняя] 
+3.3  0.0  79  -0  0    1016.8  1014.4         
08:53 16.06   16 км    5/0 2700 м
[средняя] 
+3.3  +0.6  82  +2  +2    1016.8  1014.4         
09:53 16.06   16 км    5/0 2700 м
[средняя] 
+3.3  +2.2  92  +2  +2    1016.5  1014.4         
10:53 16.06 Ю  16 км    5/0 2700 м
[средняя] 
+3.3  +1.7  89  -1  -1    1015.9  1013.8  +2.8  +7.2     
11:53 16.06 ЮЗ  16 км    8/0 2700 м
[средняя] 
+4.4  +1.7  83  +1  +1    1015.7  1013.4         
12:53 16.06 ЮЗ  16 км    8/0 2700 м
[средняя] 
+6.7  +0.6  65  +4  +4    1015.7  1013.4         
13:53 16.06 З  16 км    8/8 1350 м
[средняя] 
+7.8  0.0  58  +5  +5    1015.4  1013.1         
14:53 16.06 ЮЗ  16 км    8/8 1260 м
[средняя] 
+7.8  +1.1  63  +4  +4    1015.3  1013.1         
15:53 16.06 З  16 км    10/8 1260 м
[средняя] 
+8.3  +1.1  60  +6  +6    1015.2  1013.1         

 

Местоположение метеостанции Deadhorse Airport: широта 70.2000 долгота -148.4667 высота над уровнем моря 17 м.

В архиве по умолчанию представлена погода в Дедхорсе за последние 1-2 суток. Обновление информации о фактической погоде в базе происходит ежечасно! Архивные данные за месяц целиком и за предыдущие месяцы Вы можете получить, выбрав интересующий диапазон дат из раскрывающегося списка и нажав кнопку "Ввод!".

Внимание! Архив погоды МЕТАР в базе сайта хранится не более 60 дней. Нет смысла пытаться выбрать более раннюю дату.

Внимание! Время в таблицах - всемирное. Для получения местного времени необходимо прибавить поправку, которая в Дедхорсе равна -9 ч.

Ветер - указаны скорость ветра в м/с и направление, откуда дует ветер: С - северный, СВ - северо-восточный, В - восточный, ЮВ - юго-восточный, Ю - южный, ЮЗ - юго-западный, З - западный, СЗ - северо-западный.
Видимость - горизонтальная дальность видимости в метрах или километрах. При видимости от 1 до 10 км при отсутствии осадков обычно наблюдается дымка, при ухудшении видимости до 1 км и менее - туман. В сухую погоду видимость может ухудшаться дымом, пылью или мглою.
Атмосферные явления - указаны явления, наблюдавшиеся в указанный момент времени.
Облачность - указаны через наклонную черту верхняя и нижняя облачность в баллах и высота нижней границы облаков в метрах. Внимание: облачность, как и прочие метеорологические величины в США измеряются автоматическими метеостанциями. Указанные значения в баллах носят условный характер и показывают процент времени, в течение которого, в среднем, лазерный луч высотомера отражался от облаков обратно.
T - Температура воздуха - температура, измеренная на высоте 2 м над землей.
Td - Температура точки росы - температура, при понижении до которой содержащийся в воздухе водяной пар достигнет насыщения.
f - Относительная влажность воздуха - влажноcть воздуха, измеренная на высоте 2 м над землей.
Te - Эффективная температура - температура, которую ощущает одетый по сезону человек в тени. Характеристика душности погоды. При расчете учитывается влияние влажности воздуха и скорости ветра на теплоощущения человека.
Tes - Эффективная температура на солнце - температура, которую ощущает человек, с поправкой на солнечный нагрев. Характеристика знойности погоды. Зависит от высоты солнца над горизонтом, облачности и скорости ветра. Ночью, в пасмурную погоду, а также при ветре 12 м/с и более поправка равна нулю.
P - Атмосферное давление - приведенное к уровню моря атмосферное давление.
Po - Атмосферное давление - измеренное на уровне метеостанции атмосферное давление.
Tmin - Минимальная температура - минимум температуры воздуха на высоте 2 м над землей.
Tmax - Максимальная температура - максимум температуры воздуха на высоте 2 м над землей.
R - Количество осадков - Количество выпавших осадков за 3 или 6 часов, мм.
SD - Снежный покров - Высота снежного покрова, см.